This is the latest recevied weather packets stored in our database for station/object IU7LMH-13. If no packets are shown the sender has not sent any weather packets the latest 10 day(s).
| Time | Temp. | Humidity | Pressure | Rain* | Wind** | Luminosity | Snow |
|---|---|---|---|---|---|---|---|
| 1777929696 | 13.89° C | 88% | 1017.9 hPa | 0 mm | - | - | - |
| 1777928978 | 13.89° C | 88% | 1017.9 hPa | 0 mm | - | - | - |
| 1777928018 | 14.44° C | 87% | 1018 hPa | 0 mm | - | - | - |
| 1777927897 | 14.44° C | 87% | 1018.1 hPa | 0 mm | - | - | - |
| 1777926817 | 14.44° C | 87% | 1018 hPa | 0 mm | - | - | - |
| 1777926345 | 14.44° C | 87% | 1017.9 hPa | 0 mm | - | - | - |
| 1777926098 | 14.44° C | 86% | 1018.1 hPa | 0 mm | - | - | - |
| 1777924658 | 15° C | 86% | 1018 hPa | 0 mm | - | - | - |
| 1777923699 | 15° C | 85% | 1017.8 hPa | 0 mm | - | - | - |
| 1777923342 | 15.56° C | 85% | 1017.7 hPa | 0 mm | - | - | - |
| 1777922859 | 15.56° C | 84% | 1017.5 hPa | 0 mm | - | - | - |
| 1777922618 | 15.56° C | 84% | 1017.7 hPa | 0 mm | - | - | - |
| 1777922145 | 15.56° C | 83% | 1017.8 hPa | 0 mm | - | - | - |
| 1777922019 | 15.56° C | 83% | 1017.5 hPa | 0 mm | - | - | - |
| 1777920217 | 16.67° C | 80% | 1017.3 hPa | 0 mm | - | - | - |
| 1777919742 | 17.22° C | 79% | 1017.3 hPa | 0 mm | - | - | - |
| 1777919619 | 17.22° C | 79% | 1017.4 hPa | 0 mm | - | - | - |
| 1777919258 | 17.22° C | 78% | 1017.1 hPa | 0 mm | - | - | - |
| 1777918298 | 17.78° C | 75% | 1017 hPa | 0 mm | - | - | - |
| 1777917698 | 18.33° C | 73% | 1017 hPa | 0 mm | - | - | - |
| 1777917099 | 18.33° C | 73% | 1016.9 hPa | 0 mm | - | - | - |
| 1777916857 | 18.33° C | 72% | 1016.9 hPa | 0 mm | - | - | - |
| 1777916618 | 18.33° C | 72% | 1016.7 hPa | 0 mm | - | - | - |
| 1777915777 | 18.89° C | 71% | 1016.6 hPa | 0 mm | - | - | - |
| 1777915179 | 18.89° C | 69% | 1016.7 hPa | 0 mm | - | - | - |
* Rain latest hour (hover to see other rain measurements)
** Current wind speed in m/s (hover to see current wind gust speed)